FW3266 Weather Reports


Display with metric or nautical units.
time (UTC)temp
F
wind
direction
speed
MPH
gust
MPH
rain 1hr
in
rain 24hr
in
rain mn
in
humidity
%
barometer
mb
20260509195752 63 208 4.0 11.0 0.00 0.01 0.01 68 1013.2
20260509195249 63 177 4.0 11.0 0.00 0.01 0.01 67 1013.2
20260509195022 63 239 5.0 15.0 0.00 0.01 0.01 68 1013.2
20260509194242 63 256 4.0 15.0 0.00 0.01 0.01 68 1013.3
20260509194010 63 181 7.0 13.0 0.00 0.01 0.01 69 1013.2
20260509193230 63 190 4.0 9.0 0.00 0.01 0.01 69 1013.3
20260509192727 63 223 4.0 7.0 0.00 0.01 0.01 70 1013.2
20260509192219 63 245 4.0 10.0 0.00 0.01 0.01 69 1013.1
20260509191747 64 226 7.0 16.0 0.00 0.01 0.01 69 1013.4
20260509191738 63 224 5.0 17.0 0.00 0.01 0.01 68 1013.3
20260509190708 64 179 5.0 12.0 0.00 0.01 0.01 69 1013.3
20260509190205 64 243 5.0 12.0 0.00 0.01 0.01 69 1013.2
20260509185657 64 209 4.0 12.0 0.00 0.01 0.01 69 1013.4
20260509185200 63 222 5.0 10.0 0.00 0.01 0.01 70 1013.5
20260509184654 63 263 5.0 10.0 0.00 0.01 0.01 71 1013.6
20260509184154 62 231 4.0 8.0 0.00 0.01 0.01 71 1013.5
20260509183649 62 216 5.0 10.0 0.00 0.01 0.01 72 1013.5
20260509183141 62 200 4.0 10.0 0.00 0.01 0.01 73 1013.5
20260509182637 61 178 2.0 5.0 0.00 0.01 0.01 74 1013.5
20260509182130 61 210 2.0 6.0 0.00 0.01 0.01 75 1013.6
20260509181632 61 203 4.0 6.0 0.00 0.01 0.01 75 1013.6
20260509181127 60 180 2.0 5.0 0.00 0.01 0.01 75 1013.4
20260509180612 60 165 1.0 6.0 0.00 0.01 0.01 77 1013.5
20260509180347 60 162 2.0 11.0 0.00 0.01 0.01 76 1013.8
20260509175608 60 192 3.0 11.0 0.00 0.01 0.01 75 1014.1
20260509175346 60 176 4.0 10.0 0.00 0.01 0.01 75 1014.1
20260509174842 60 180 2.0 10.0 0.00 0.01 0.01 76 1014.3
20260509174057 60 212 3.0 9.0 0.00 0.01 0.01 73 1014.3
20260509173553 60 201 5.0 10.0 0.00 0.01 0.01 73 1014.3
20260509173047 60 254 5.0 10.0 0.00 0.01 0.01 73 1014.5
20260509172548 59 205 3.0 6.0 0.00 0.01 0.01 75 1014.4
20260509172043 59 238 2.0 7.0 0.00 0.01 0.01 76 1014.3
20260509171537 58 168 3.0 7.0 0.00 0.01 0.01 77 1014.3
20260509171031 56 230 2.0 7.0 0.00 0.01 0.01 79 1014.2
20260509170530 56 188 3.0 7.0 0.00 0.01 0.01 79 1014.3
20260509170257 56 171 3.0 8.0 0.00 0.01 0.01 79 1014.4
20260509165521 55 189 3.0 8.0 0.00 0.01 0.01 79 1014.3
20260509165013 55 111 4.0 12.0 0.00 0.01 0.01 79 1014.3
20260509164509 56 209 4.0 12.0 0.00 0.01 0.01 79 1014.3
20260509164004 56 242 2.0 7.0 0.00 0.01 0.01 79 1014.3
20260509163500 56 104 2.0 7.0 0.00 0.01 0.01 79 1014.3
20260509163231 56 160 2.0 5.0 0.00 0.01 0.01 79 1014.4
20260509162454 56 161 2.0 6.0 0.00 0.01 0.01 79 1014.5
20260509162220 56 130 2.0 8.0 0.00 0.01 0.01 79 1014.6
20260509161447 56 211 3.0 8.0 0.00 0.01 0.01 80 1014.7
20260509160943 55 176 2.0 6.0 0.00 0.01 0.01 81 1014.8
20260509160442 55 155 2.0 7.0 0.00 0.01 0.01 81 1014.7
20260509155936 55 186 2.0 7.0 0.00 0.01 0.01 82 1014.8
20260509155433 54 162 4.0 9.0 0.00 0.01 0.01 82 1015.0
20260509155201 54 206 4.0 9.0 0.00 0.01 0.01 82 1015.1
20260509154421 54 165 3.0 8.0 0.00 0.01 0.01 83 1015.0
20260509153923 54 110 2.0 8.0 0.00 0.01 0.01 83 1015.0
20260509153415 54 212 5.0 8.0 0.00 0.01 0.01 84 1015.1
20260509152910 53 206 2.0 6.0 0.00 0.01 0.01 85 1015.3
20260509152638 53 214 4.0 7.0 0.00 0.01 0.01 85 1015.3
20260509151859 53 187 4.0 7.0 0.00 0.01 0.01 85 1015.1
20260509151354 53 183 4.0 6.0 0.00 0.01 0.01 85 1015.1
20260509150849 53 164 2.0 5.0 0.00 0.01 0.01 84 1015.0
20260509150349 53 185 3.0 7.0 0.00 0.01 0.01 84 1015.1
20260509145841 53 120 3.0 7.0 0.00 0.01 0.01 84 1015.0
20260509145338 53 176 2.0 7.0 0.00 0.01 0.01 84 1015.5
20260509145103 53 162 2.0 6.0 0.00 0.01 0.01 84 1015.3
20260509144330 53 131 2.0 5.0 0.00 0.01 0.01 84 1015.4
20260509143828 53 160 1.0 6.0 0.00 0.01 0.01 84 1015.5
20260509143600 53 131 3.0 6.0 0.00 0.01 0.01 84 1015.7
20260509142821 53 191 2.0 5.0 0.00 0.01 0.01 85 1015.6
20260509142322 52 185 1.0 5.0 0.00 0.01 0.01 85 1015.6
20260509141816 52 142 1.0 5.0 0.00 0.01 0.01 85 1015.6
20260509141309 52 184 2.0 5.0 0.00 0.01 0.01 85 1015.8
20260509140812 52 162 1.0 6.0 0.00 0.01 0.01 85 1016.0
20260509140305 52 179 0.0 6.0 0.00 0.01 0.01 84 1016.1
20260509140035 52 185 3.0 6.0 0.00 0.01 0.01 85 1016.1
20260509135255 52 183 1.0 4.0 0.00 0.01 0.01 85 1016.2
20260509134742 52 210 2.0 5.0 0.00 0.01 0.01 85 1016.2
20260509134258 51 195 1.0 3.0 0.00 0.01 0.01 87 1016.2
20260509134252 52 184 3.0 5.0 0.00 0.01 0.01 86 1016.2
20260509133224 51 203 1.0 3.0 0.00 0.01 0.01 87 1016.1
20260509132719 50 204 1.0 5.0 0.01 0.01 0.01 87 1016.2
20260509132214 50 204 3.0 6.0 0.01 0.01 0.01 87 1016.1
20260509131703 49 206 2.0 6.0 0.01 0.01 0.01 87 1016.1
20260509131154 49 207 2.0 5.0 0.01 0.01 0.01 88 1016.1
20260509130650 48 207 2.0 4.0 0.01 0.01 0.01 88 1016.2
20260509130153 47 220 1.0 3.0 0.01 0.01 0.01 87 1016.1
20260509125646 47 255 1.0 2.0 0.01 0.01 0.01 87 1016.1
20260509125138 47 255 0.0 1.0 0.01 0.01 0.01 87 1016.0
20260509124634 47 255 0.0 1.0 0.01 0.01 0.01 87 1016.0
20260509124121 47 255 0.0 1.0 0.01 0.01 0.01 87 1016.1
20260509123615 47 255 0.0 1.0 0.01 0.01 0.01 87 1016.2
20260509123114 46 255 0.0 1.0 0.01 0.01 0.01 87 1016.3
20260509122609 46 255 0.0 1.0 0.00 0.00 0.00 87 1016.3
20260509122105 46 255 0.0 1.0 0.00 0.00 0.00 86 1016.4
20260509121600 46 255 0.0 0.0 0.00 0.00 0.00 86 1016.6
20260509121057 46 255 0.0 1.0 0.00 0.00 0.00 86 1016.5
20260509120550 46 255 0.0 1.0 0.00 0.00 0.00 86 1016.8
20260509120043 46 255 0.0 1.0 0.00 0.00 0.00 86 1016.6
20260509115539 45 255 0.0 1.0 0.00 0.00 0.00 85 1016.7
20260509115033 45 255 1.0 3.0 0.00 0.00 0.00 85 1017.1
20260509114525 45 255 2.0 3.0 0.00 0.00 0.00 85 1017.0
20260509114020 45 255 0.0 2.0 0.00 0.00 0.00 85 1017.0
20260509113744 44 255 0.0 2.0 0.00 0.00 0.00 85 1017.0
20260509113009 44 255 1.0 2.0 0.00 0.00 0.00 85 1017.0
20260509112503 44 255 0.0 3.0 0.00 0.00 0.00 85 1017.1
20260509111959 44 255 1.0 4.0 0.00 0.00 0.00 85 1017.1
20260509111452 44 255 1.0 4.0 0.00 0.00 0.00 85 1017.0
20260509110945 44 314 1.0 3.0 0.00 0.00 0.00 85 1017.0
20260509110454 44 314 2.0 2.0 0.00 0.00 0.00 85 1017.0
20260509105934 43 314 0.0 1.0 0.00 0.00 0.00 85 1016.7
20260509105432 43 314 0.0 0.0 0.00 0.00 0.00 85 1016.5
20260509105428 43 314 0.0 0.0 0.00 0.00 0.00 85 1016.5
20260509104419 43 314 0.0 0.0 0.00 0.00 0.00 85 1016.5
20260509103919 43 314 0.0 2.0 0.00 0.00 0.00 85 1016.3
20260509103407 42 314 1.0 3.0 0.00 0.00 0.00 85 1016.1
20260509102906 42 314 1.0 3.0 0.00 0.00 0.00 85 1016.0
20260509102401 42 314 0.0 2.0 0.00 0.00 0.00 84 1016.0
20260509101855 42 314 0.0 2.0 0.00 0.00 0.00 84 1015.9
20260509101353 41 314 0.0 0.0 0.00 0.00 0.00 84 1015.9
20260509100851 41 314 0.0 0.0 0.00 0.00 0.00 84 1015.9
20260509100345 41 314 0.0 0.0 0.00 0.00 0.00 84 1015.8
20260509095845 41 314 0.0 0.0 0.00 0.00 0.00 84 1015.8
20260509095341 40 314 0.0 0.0 0.00 0.00 0.00 83 1015.7
20260509094829 40 314 0.0 0.0 0.00 0.00 0.00 83 1015.4
20260509094330 40 314 0.0 0.0 0.00 0.00 0.00 83 1015.4
20260509093824 40 314 0.0 0.0 0.00 0.00 0.00 83 1015.5
20260509093547 40 314 0.0 0.0 0.00 0.00 0.00 83 1015.5
20260509092820 40 314 0.0 0.0 0.00 0.00 0.00 83 1015.5
20260509092259 39 314 0.0 0.0 0.00 0.00 0.00 83 1015.5
20260509091753 39 314 0.0 0.0 0.00 0.00 0.00 83 1015.5
20260509091744 39 314 0.0 0.0 0.00 0.00 0.00 82 1015.5
20260509090735 39 314 0.0 0.0 0.00 0.00 0.00 82 1015.5
20260509090231 40 314 0.0 0.0 0.00 0.00 0.00 83 1015.1
20260509085725 39 314 0.0 0.0 0.00 0.00 0.00 83 1015.0
20260509085206 39 314 0.0 0.0 0.00 0.00 0.00 82 1015.1
20260509084931 39 314 0.0 0.0 0.00 0.00 0.00 82 1015.1
20260509084424 39 314 0.0 0.0 0.00 0.00 0.00 82 1015.2
20260509083654 39 314 0.0 0.0 0.00 0.00 0.00 82 1015.3
20260509083149 40 314 0.0 0.0 0.00 0.00 0.00 82 1015.2
20260509082632 40 314 0.0 0.0 0.00 0.00 0.00 82 1015.4
20260509082126 40 314 0.0 0.0 0.00 0.00 0.00 81 1015.5
20260509081625 40 314 0.0 0.0 0.00 0.00 0.00 82 1015.4
20260509081121 40 314 0.0 0.0 0.00 0.00 0.00 82 1015.5
20260509080615 40 314 0.0 0.0 0.00 0.00 0.00 82 1015.6
20260509075556 40 314 0.0 0.0 0.00 0.00 0.00 83 1015.5
20260509075052 40 314 0.0 0.0 0.00 0.00 0.00 83 1015.5
20260509074551 39 314 0.0 0.0 0.00 0.00 0.00 83 1015.4
20260509074538 39 314 0.0 0.0 0.00 0.00 0.00 83 1015.5
20260509073526 39 314 0.0 0.0 0.00 0.00 0.00 83 1015.5
20260509073026 39 314 0.0 0.0 0.00 0.00 0.00 82 1015.5
20260509072753 39 314 0.0 0.0 0.00 0.00 0.00 82 1015.4
20260509072015 39 314 0.0 0.0 0.00 0.00 0.00 82 1015.5
20260509071509 39 314 0.0 0.0 0.00 0.00 0.00 82 1015.4
20260509071008 39 314 0.0 2.0 0.00 0.00 0.00 82 1015.4
20260509070504 39 314 0.0 2.0 0.00 0.00 0.00 81 1015.4
20260509065956 40 314 0.0 2.0 0.00 0.00 0.00 82 1015.4
20260509065452 40 314 1.0 2.0 0.00 0.00 0.00 82 1015.4
20260509064947 40 314 1.0 2.0 0.00 0.00 0.00 82 1015.4
20260509064441 40 314 0.0 0.0 0.00 0.00 0.00 82 1015.3
20260509063943 40 314 0.0 0.0 0.00 0.00 0.00 82 1015.2
20260509063433 40 314 0.0 0.0 0.00 0.00 0.00 82 1015.1
20260509062928 40 314 0.0 0.0 0.00 0.00 0.00 82 1015.1
20260509062430 40 314 0.0 0.0 0.00 0.00 0.00 82 1015.0
20260509061917 40 314 0.0 0.0 0.00 0.00 0.00 81 1015.0
20260509061414 40 314 0.0 0.0 0.00 0.00 0.00 81 1014.9
20260509060907 40 314 0.0 2.0 0.00 0.00 0.00 81 1015.0
20260509060402 40 314 0.0 2.0 0.00 0.00 0.00 81 1015.0
20260509055904 40 314 1.0 2.0 0.00 0.00 0.00 81 1015.1
20260509055356 40 314 0.0 2.0 0.00 0.00 0.00 81 1015.0
20260509054857 40 314 1.0 2.0 0.00 0.00 0.00 80 1015.0
20260509054352 40 314 0.0 3.0 0.00 0.00 0.00 80 1015.0
20260509053845 40 314 2.0 3.0 0.00 0.00 0.00 80 1015.1
20260509053339 40 314 0.0 0.0 0.00 0.00 0.00 80 1014.9
20260509052843 40 314 0.0 0.0 0.00 0.00 0.00 80 1014.9
20260509052321 41 314 0.0 0.0 0.00 0.00 0.00 80 1015.0
20260509051818 41 314 0.0 0.0 0.00 0.00 0.00 80 1015.0
20260509051311 41 314 0.0 0.0 0.00 0.00 0.00 80 1014.9
20260509050810 40 314 0.0 0.0 0.00 0.00 0.00 80 1014.9
20260509050322 40 314 0.0 0.0 0.00 0.00 0.00 80 1015.0
20260509045805 40 314 0.0 0.0 0.00 0.00 0.00 79 1014.9
20260509045306 40 314 0.0 1.0 0.00 0.00 0.00 79 1015.0
20260509044802 40 314 0.0 2.0 0.00 0.00 0.00 79 1014.9
20260509044254 41 314 1.0 2.0 0.00 0.00 0.00 78 1015.0
20260509043751 41 314 1.0 2.0 0.00 0.00 0.00 78 1014.9
20260509043249 41 314 0.0 0.0 0.00 0.00 0.00 77 1014.9
20260509042743 41 314 0.0 0.0 0.00 0.00 0.00 77 1014.8
20260509042238 41 314 0.0 0.0 0.00 0.00 0.00 76 1014.7
20260509041739 41 314 0.0 0.0 0.00 0.00 0.00 76 1014.7
20260509041220 42 314 0.0 0.0 0.00 0.00 0.00 76 1014.8
20260509040715 42 314 0.0 0.0 0.00 0.00 0.00 76 1014.7
20260509040208 42 314 0.0 0.0 0.00 0.00 0.00 75 1014.7
20260509035702 42 314 0.0 0.0 0.00 0.00 0.00 75 1014.7
20260509035156 43 314 0.0 0.0 0.00 0.00 0.00 75 1014.8
20260509034924 43 314 0.0 0.0 0.00 0.00 0.00 75 1014.8
20260509034155 43 314 0.0 0.0 0.00 0.00 0.00 75 1014.8
20260509033648 43 314 0.0 0.0 0.00 0.00 0.00 74 1014.8
20260509033147 43 314 0.0 0.0 0.00 0.00 0.00 74 1014.7
20260509032641 44 314 0.0 0.0 0.00 0.00 0.00 74 1014.7
20260509032143 44 314 0.0 0.0 0.00 0.00 0.00 73 1014.8
20260509031901 44 314 0.0 0.0 0.00 0.00 0.00 73 1014.8
20260509031118 44 314 0.0 0.0 0.00 0.00 0.00 73 1014.7
20260509030612 44 314 0.0 0.0 0.00 0.00 0.00 73 1014.7
20260509030108 44 314 0.0 0.0 0.00 0.00 0.00 72 1014.7
20260509025555 44 314 0.0 1.0 0.00 0.00 0.00 72 1014.6
20260509025049 45 314 0.0 2.0 0.00 0.00 0.00 71 1014.5
20260509024539 45 314 0.0 2.0 0.00 0.00 0.00 71 1014.6
20260509024037 45 314 1.0 2.0 0.00 0.00 0.00 71 1014.4
20260509023759 45 314 1.0 2.0 0.00 0.00 0.00 71 1014.4
20260509023025 46 314 1.0 2.0 0.00 0.00 0.00 71 1014.3
20260509022519 46 314 1.0 2.0 0.00 0.00 0.00 71 1014.4
20260509022014 46 314 1.0 3.0 0.00 0.00 0.00 70 1014.2
20260509021746 46 314 1.0 3.0 0.00 0.00 0.00 70 1014.2
20260509021012 46 314 1.0 2.0 0.00 0.00 0.00 69 1013.9
20260509020512 46 314 1.0 3.0 0.00 0.00 0.00 69 1013.8
20260509020005 46 314 1.0 3.0 0.00 0.00 0.00 68 1013.9
20260509015500 47 314 1.0 2.0 0.00 0.00 0.00 67 1013.7
20260509014941 47 314 1.0 2.0 0.00 0.00 0.00 66 1013.8
20260509014433 48 314 0.0 2.0 0.00 0.00 0.00 66 1013.7
20260509013928 48 314 0.0 0.0 0.00 0.00 0.00 65 1013.6
20260509013430 49 314 0.0 0.0 0.00 0.00 0.00 63 1013.4
20260509012924 49 314 0.0 0.0 0.00 0.00 0.00 62 1013.4
20260509012655 50 314 0.0 0.0 0.00 0.00 0.00 61 1013.3
20260509011921 50 314 0.0 0.0 0.00 0.00 0.00 60 1013.2
20260509011421 50 314 0.0 4.0 0.00 0.00 0.00 59 1013.1
20260509011417 50 314 0.0 1.0 0.00 0.00 0.00 60 1013.2
20260509010402 51 314 1.0 4.0 0.00 0.00 0.00 60 1012.9
20260509005853 50 314 1.0 4.0 0.00 0.00 0.00 59 1013.0
20260509005351 50 314 2.0 4.0 0.00 0.00 0.00 59 1012.8
20260509004837 51 317 2.0 3.0 0.00 0.00 0.00 60 1012.7
20260509004333 51 317 1.0 3.0 0.00 0.00 0.00 59 1012.5
20260509003839 51 317 1.0 3.0 0.00 0.00 0.00 58 1012.3
20260509003321 52 317 1.0 2.0 0.00 0.00 0.00 56 1012.3
20260509002814 52 317 1.0 3.0 0.00 0.00 0.00 55 1012.1
20260509002309 52 317 2.0 4.0 0.00 0.00 0.00 54 1012.0
20260509001809 52 317 2.0 4.0 0.00 0.00 0.00 54 1011.8
20260509001311 53 317 1.0 4.0 0.00 0.00 0.00 54 1011.8
20260509000806 54 317 1.0 5.0 0.00 0.00 0.00 52 1011.6
20260509000321 55 317 2.0 5.0 0.00 0.00 0.00 49 1011.5
20260509000314 54 318 2.0 5.0 0.00 0.00 0.00 50 1011.7
20260508235247 55 295 2.0 4.0 0.00 0.00 0.00 48 1011.5
20260508234743 55 313 2.0 5.0 0.00 0.00 0.00 49 1011.4
20260508234242 55 322 2.0 5.0 0.00 0.00 0.00 48 1011.3
20260508233738 56 314 2.0 6.0 0.00 0.00 0.00 48 1011.2
20260508233231 56 314 2.0 6.0 0.00 0.00 0.00 47 1011.3
20260508232727 56 311 2.0 6.0 0.00 0.00 0.00 47 1011.2
20260508232224 57 273 3.0 8.0 0.00 0.00 0.00 46 1011.1
20260508231734 57 290 3.0 9.0 0.00 0.00 0.00 46 1010.9
20260508231727 57 309 4.0 9.0 0.00 0.00 0.00 46 1010.9
20260508230719 58 299 2.0 6.0 0.00 0.00 0.00 45 1010.9
20260508230714 57 236 2.0 6.0 0.00 0.00 0.00 46 1010.9
20260508225705 58 314 4.0 6.0 0.00 0.00 0.00 45 1010.8
20260508225200 58 276 4.0 6.0 0.00 0.00 0.00 44 1010.7
20260508224653 58 337 2.0 8.0 0.00 0.00 0.00 45 1010.7
20260508224155 59 275 3.0 8.0 0.00 0.00 0.00 42 1010.7
20260508223650 59 288 3.0 11.0 0.00 0.00 0.00 41 1010.7
20260508223424 59 289 3.0 11.0 0.00 0.00 0.00 42 1010.7
20260508222645 60 261 3.0 7.0 0.00 0.00 0.00 43 1010.6
20260508222410 60 253 4.0 8.0 0.00 0.00 0.00 42 1010.6
20260508221632 60 294 4.0 9.0 0.00 0.00 0.00 42 1010.7
20260508221125 59 295 3.0 14.0 0.00 0.00 0.00 43 1010.7
20260508220620 60 271 5.0 14.0 0.00 0.00 0.00 43 1010.7
20260508220116 60 287 3.0 8.0 0.00 0.00 0.00 43 1010.6
20260508215611 59 261 3.0 7.0 0.00 0.00 0.00 42 1010.5
20260508215110 59 13 2.0 7.0 0.00 0.00 0.00 45 1010.4
20260508214606 59 253 4.0 8.0 0.00 0.00 0.00 42 1010.4
20260508214325 60 340 2.0 9.0 0.00 0.00 0.00 42 1010.4
20260508213555 61 271 4.0 10.0 0.00 0.00 0.00 42 1010.3
20260508213047 61 304 4.0 10.0 0.00 0.00 0.00 42 1010.4
20260508212826 61 328 5.0 9.0 0.00 0.00 0.00 40 1010.3
20260508212037 61 298 4.0 8.0 0.00 0.00 0.00 43 1010.3
20260508211534 60 307 4.0 12.0 0.00 0.00 0.00 43 1010.3
20260508211031 60 268 3.0 12.0 0.00 0.00 0.00 43 1010.2
20260508210525 59 262 3.0 10.0 0.00 0.00 0.00 42 1010.3
20260508210252 59 280 3.0 12.0 0.00 0.00 0.00 44 1010.3
20260508205520 59 219 4.0 15.0 0.00 0.00 0.00 44 1010.2
20260508205016 59 283 6.0 15.0 0.00 0.00 0.00 42 1010.1
20260508204509 60 275 4.0 12.0 0.00 0.00 0.00 42 1010.1
20260508204002 60 304 3.0 9.0 0.00 0.00 0.00 43 1010.1
20260508203506 60 280 5.0 13.0 0.00 0.00 0.00 41 1010.0
20260508203000 60 38 6.0 14.0 0.00 0.00 0.00 41 1009.9
20260508202454 60 270 7.0 14.0 0.00 0.00 0.00 39 1009.8
20260508201955 60 341 5.0 11.0 0.00 0.00 0.00 41 1009.7
20260508201448 60 307 3.0 9.0 0.00 0.00 0.00 41 1009.8
20260508201005 60 333 5.0 15.0 0.00 0.00 0.00 38 1009.5
20260508200957 60 332 4.0 15.0 0.00 0.00 0.00 39 1009.6